{"data":{"norad_id":58582,"epoch":"2026-09-19T18:21:17.285760Z","epoch_age_seconds":81833,"freshness":"FRESH","line1":"1 58582U 23197A   26262.76478340 -.00000366  00000+0  00000+0 0  9991","line2":"2 58582   2.9659 314.7689 0013690 211.4373 230.9766  1.00272190 10274","mean_motion":1.0027219,"eccentricity":0.001369,"inclination_deg":2.9659,"raan_deg":314.7689,"arg_perigee_deg":211.4373,"mean_anomaly_deg":230.9766,"bstar":0,"rev_number":1027,"period_min":1436.091103625,"perigee_km":35728.758062747,"apogee_km":35844.204787995,"semimajor_km":42164.618425371,"source":"CELESTRAK","updated_at":"2026-09-20T09:00:35.335519Z"}}